owner,sensor,date,latitude,longitude,vertical_datum,direction_of_sea_water_velocity,sea_water_speed,upward_sea_water_velocity,qcFlag 
TABS,ioos:station:wmo:42051:1,1999-07-01T00:00:00Z,29.6350,-93.6417,2.0,19.07588148,8.200298775,-99999.0,'11133222,11111222,99999999' 
TABS,ioos:station:wmo:42051:1,1999-07-01T00:30:00Z,29.6350,-93.6417,2.0,14.93690722,6.944652619,-99999.0,'11133222,11111222,99999999' 
TABS,ioos:station:wmo:42051:1,1999-07-01T01:00:00Z,29.6350,-93.6417,2.0,1.109019994,7.751451477,-99999.0,'11133222,11111222,99999999' 
TABS,ioos:station:wmo:42051:1,1999-07-01T01:30:00Z,29.6350,-93.6417,2.0,12.67141383,6.108780566,-99999.0,'11133222,11111222,99999999' 
TABS,ioos:station:wmo:42051:1,1999-07-01T02:00:00Z,29.6350,-93.6417,2.0,6.66365478,11.54800849,-99999.0,'11111222,11111222,99999999' 
TABS,ioos:station:wmo:42051:1,1999-07-01T02:30:00Z,29.6350,-93.6417,2.0,359.3593463,13.4108389,-99999.0,'11111222,11144222,99999999' 
TABS,ioos:station:wmo:42051:1,1999-07-01T03:00:00Z,29.6350,-93.6417,2.0,2.760209006,15.36782678,-99999.0,'11111222,11111222,99999999' 
TABS,ioos:station:wmo:42051:1,1999-07-01T03:30:00Z,29.6350,-93.6417,2.0,358.6586373,12.8135124,-99999.0,'11111222,11111222,99999999' 
TABS,ioos:station:wmo:42051:1,1999-07-01T04:00:00Z,29.6350,-93.6417,2.0,0.000210459,15.35,-99999.0,'11111222,11111222,99999999' 
TABS,ioos:station:wmo:42051:1,1999-07-01T04:30:00Z,29.6350,-93.6417,2.0,6.348203974,16.18926187,-99999.0,'11111222,11111222,99999999' 
TABS,ioos:station:wmo:42051:1,1999-07-01T05:00:00Z,29.6350,-93.6417,2.0,5.147773679,16.60697745,-99999.0,'11111222,11111222,99999999' 
TABS,ioos:station:wmo:42051:1,1999-07-01T05:30:00Z,29.6350,-93.6417,2.0,6.192627844,17.98493814,-99999.0,'11111222,11111222,99999999' 
TABS,ioos:station:wmo:42051:1,1999-07-01T06:00:00Z,29.6350,-93.6417,2.0,2.37015422,17.89530665,-99999.0,'11111222,11111222,99999999' 
TABS,ioos:station:wmo:42051:1,1999-07-01T06:30:00Z,29.6350,-93.6417,2.0,355.2395269,16.14570221,-99999.0,'11111222,11111222,99999999' 
TABS,ioos:station:wmo:42051:1,1999-07-01T07:00:00Z,29.6350,-93.6417,2.0,358.2164935,14.45700522,-99999.0,'11111222,11111222,99999999' 
TABS,ioos:station:wmo:42051:1,1999-07-01T07:30:00Z,29.6350,-93.6417,2.0,353.9991229,11.38237673,-99999.0,'11111222,11111222,99999999' 
TABS,ioos:station:wmo:42051:1,1999-07-01T08:00:00Z,29.6350,-93.6417,2.0,349.6553772,14.08902055,-99999.0,'11111222,11111222,99999999' 
TABS,ioos:station:wmo:42051:1,1999-07-01T08:30:00Z,29.6350,-93.6417,2.0,348.1837324,13.08734121,-99999.0,'11111222,11111222,99999999' 
TABS,ioos:station:wmo:42051:1,1999-07-01T09:00:00Z,29.6350,-93.6417,2.0,349.4317509,8.941683287,-99999.0,'11133222,11111222,99999999' 
TABS,ioos:station:wmo:42051:1,1999-07-01T09:30:00Z,29.6350,-93.6417,2.0,344.7366742,11.88939864,-99999.0,'11111222,11111222,99999999' 
TABS,ioos:station:wmo:42051:1,1999-07-01T10:00:00Z,29.6350,-93.6417,2.0,348.8558702,11.5375604,-99999.0,'11111222,11111222,99999999' 
TABS,ioos:station:wmo:42051:1,1999-07-01T10:30:00Z,29.6350,-93.6417,2.0,321.0422876,9.001977561,-99999.0,'11133222,11111222,99999999' 
TABS,ioos:station:wmo:42051:1,1999-07-01T11:00:00Z,29.6350,-93.6417,2.0,318.8839926,9.291506875,-99999.0,'11133222,11111222,99999999' 
TABS,ioos:station:wmo:42051:1,1999-07-01T11:30:00Z,29.6350,-93.6417,2.0,316.280929,4.74587189,-99999.0,'11133222,11111222,99999999' 
TABS,ioos:station:wmo:42051:1,1999-07-01T12:00:00Z,29.6350,-93.6417,2.0,346.4643857,4.443422105,-99999.0,'11133222,11111222,99999999' 
TABS,ioos:station:wmo:42051:1,1999-07-01T12:30:00Z,29.6350,-93.6417,2.0,338.198852,8.023895563,-99999.0,'11133222,11111222,99999999' 
TABS,ioos:station:wmo:42051:1,1999-07-01T13:00:00Z,29.6350,-93.6417,2.0,354.3917784,6.13938922,-99999.0,'11133222,11111222,99999999' 
TABS,ioos:station:wmo:42051:1,1999-07-01T13:30:00Z,29.6350,-93.6417,2.0,356.4388513,14.32766904,-99999.0,'11111222,11111222,99999999' 
TABS,ioos:station:wmo:42051:1,1999-07-01T14:00:00Z,29.6350,-93.6417,2.0,336.922043,8.750279996,-99999.0,'11133222,11111222,99999999' 
TABS,ioos:station:wmo:42051:1,1999-07-01T14:30:00Z,29.6350,-93.6417,2.0,3.113858629,11.04630708,-99999.0,'11111222,11111222,99999999' 
TABS,ioos:station:wmo:42051:1,1999-07-01T15:00:00Z,29.6350,-93.6417,2.0,327.9876996,8.432283202,-99999.0,'11133222,11111222,99999999' 
TABS,ioos:station:wmo:42051:1,1999-07-01T15:30:00Z,29.6350,-93.6417,2.0,318.1319896,15.40257446,-99999.0,'11111222,11111222,99999999' 
TABS,ioos:station:wmo:42051:1,1999-07-01T16:00:00Z,29.6350,-93.6417,2.0,299.2722469,11.26893961,-99999.0,'11111222,11111222,99999999' 
TABS,ioos:station:wmo:42051:1,1999-07-01T16:30:00Z,29.6350,-93.6417,2.0,343.5731778,9.476840191,-99999.0,'11133222,11111222,99999999' 
TABS,ioos:station:wmo:42051:1,1999-07-01T17:00:00Z,29.6350,-93.6417,2.0,341.286722,9.755741899,-99999.0,'11133222,11111222,99999999' 
TABS,ioos:station:wmo:42051:1,1999-07-01T17:30:00Z,29.6350,-93.6417,2.0,341.5653047,9.423587427,-99999.0,'11133222,11111222,99999999' 
TABS,ioos:station:wmo:42051:1,1999-07-01T18:00:00Z,29.6350,-93.6417,2.0,341.2942452,10.69494273,-99999.0,'11111222,11111222,99999999' 
TABS,ioos:station:wmo:42051:1,1999-07-01T18:30:00Z,29.6350,-93.6417,2.0,338.6837278,9.435518004,-99999.0,'11133222,11111222,99999999' 
TABS,ioos:station:wmo:42051:1,1999-07-01T19:00:00Z,29.6350,-93.6417,2.0,345.9466059,7.989123857,-99999.0,'11133222,11111222,99999999' 
TABS,ioos:station:wmo:42051:1,1999-07-01T19:30:00Z,29.6350,-93.6417,2.0,333.8841497,9.132381946,-99999.0,'11133222,11111222,99999999' 
TABS,ioos:station:wmo:42051:1,1999-07-01T20:00:00Z,29.6350,-93.6417,2.0,332.2333911,6.396561576,-99999.0,'11133222,11111222,99999999' 
TABS,ioos:station:wmo:42051:1,1999-07-01T20:30:00Z,29.6350,-93.6417,2.0,338.9429094,4.146926573,-99999.0,'11133222,11111222,99999999' 
TABS,ioos:station:wmo:42051:1,1999-07-01T21:00:00Z,29.6350,-93.6417,2.0,300.2766851,4.145419159,-99999.0,'11133222,11111222,99999999' 
TABS,ioos:station:wmo:42051:1,1999-07-01T21:30:00Z,29.6350,-93.6417,2.0,318.6066159,3.372506486,-99999.0,'11133222,11111222,99999999' 
TABS,ioos:station:wmo:42051:1,1999-07-01T22:00:00Z,29.6350,-93.6417,2.0,292.2221802,3.543162429,-99999.0,'11133222,11111222,99999999' 
TABS,ioos:station:wmo:42051:1,1999-07-01T22:30:00Z,29.6350,-93.6417,2.0,318.3933188,1.792121648,-99999.0,'11133222,11111222,99999999' 
TABS,ioos:station:wmo:42051:1,1999-07-01T23:00:00Z,29.6350,-93.6417,2.0,292.507131,4.676162957,-99999.0,'11133222,11111222,99999999' 
TABS,ioos:station:wmo:42051:1,1999-07-01T23:30:00Z,29.6350,-93.6417,2.0,282.6197137,1.373171512,-99999.0,'11133222,11111222,99999999' 
TABS,ioos:station:wmo:42051:1,1999-07-02T00:00:00Z,29.6350,-93.6417,2.0,293.1724068,5.667186251,-99999.0,'11133222,11111222,99999999' 
TABS,ioos:station:wmo:42051:1,1999-07-02T00:30:00Z,29.6350,-93.6417,2.0,293.4806049,3.73965239,-99999.0,'11133222,11111222,99999999' 
TABS,ioos:station:wmo:42051:1,1999-07-02T01:00:00Z,29.6350,-93.6417,2.0,266.3932789,2.384722206,-99999.0,'11133222,11111222,99999999' 
TABS,ioos:station:wmo:42051:1,1999-07-02T01:30:00Z,29.6350,-93.6417,2.0,301.7913252,3.682458418,-99999.0,'11133222,11111222,99999999' 
TABS,ioos:station:wmo:42051:1,1999-07-02T02:00:00Z,29.6350,-93.6417,2.0,297.9080309,2.862953021,-99999.0,'11133222,11111222,99999999' 
TABS,ioos:station:wmo:42051:1,1999-07-02T02:30:00Z,29.6350,-93.6417,2.0,304.0798168,6.121258041,-99999.0,'11133222,11111222,99999999' 
TABS,ioos:station:wmo:42051:1,1999-07-02T03:00:00Z,29.6350,-93.6417,2.0,308.3003397,7.212246529,-99999.0,'11133222,11111222,99999999' 
TABS,ioos:station:wmo:42051:1,1999-07-02T03:30:00Z,29.6350,-93.6417,2.0,316.5597031,7.795203654,-99999.0,'11133222,11111222,99999999' 
TABS,ioos:station:wmo:42051:1,1999-07-02T04:00:00Z,29.6350,-93.6417,2.0,310.8830228,7.287866629,-99999.0,'11133222,11111222,99999999' 
TABS,ioos:station:wmo:42051:1,1999-07-02T04:30:00Z,29.6350,-93.6417,2.0,321.8349896,7.962034916,-99999.0,'11133222,11111222,99999999' 
TABS,ioos:station:wmo:42051:1,1999-07-02T05:00:00Z,29.6350,-93.6417,2.0,324.4712746,7.692106344,-99999.0,'11133222,11111222,99999999' 
TABS,ioos:station:wmo:42051:1,1999-07-02T05:30:00Z,29.6350,-93.6417,2.0,327.8074687,6.156500629,-99999.0,'11133222,11111222,99999999' 
TABS,ioos:station:wmo:42051:1,1999-07-02T06:00:00Z,29.6350,-93.6417,2.0,322.0215895,7.751451477,-99999.0,'11133222,11111222,99999999' 
TABS,ioos:station:wmo:42051:1,1999-07-02T06:30:00Z,29.6350,-93.6417,2.0,308.0978083,7.001606958,-99999.0,'11133222,11111222,99999999' 
TABS,ioos:station:wmo:42051:1,1999-07-02T07:00:00Z,29.6350,-93.6417,2.0,302.7743947,7.980382196,-99999.0,'11133222,11111222,99999999' 
TABS,ioos:station:wmo:42051:1,1999-07-02T07:30:00Z,29.6350,-93.6417,2.0,300.1872274,9.48645877,-99999.0,'11133222,11111222,99999999' 
TABS,ioos:station:wmo:42051:1,1999-07-02T08:00:00Z,29.6350,-93.6417,2.0,302.2382103,8.098450469,-99999.0,'11133222,11111222,99999999' 
TABS,ioos:station:wmo:42051:1,1999-07-02T08:30:00Z,29.6350,-93.6417,2.0,296.5974545,7.996180338,-99999.0,'11133222,11111222,99999999' 
TABS,ioos:station:wmo:42051:1,1999-07-02T09:00:00Z,29.6350,-93.6417,2.0,303.9998739,7.189019405,-99999.0,'11133222,11111222,99999999' 
TABS,ioos:station:wmo:42051:1,1999-07-02T09:30:00Z,29.6350,-93.6417,2.0,291.5942375,7.689694402,-99999.0,'11133222,11111222,99999999' 
TABS,ioos:station:wmo:42051:1,1999-07-02T10:00:00Z,29.6350,-93.6417,2.0,301.6408505,6.824404736,-99999.0,'11133222,11111222,99999999' 
TABS,ioos:station:wmo:42051:1,1999-07-02T10:30:00Z,29.6350,-93.6417,2.0,296.9860312,8.528593084,-99999.0,'11133222,11111222,99999999' 
TABS,ioos:station:wmo:42051:1,1999-07-02T11:00:00Z,29.6350,-93.6417,2.0,297.0868577,7.862340618,-99999.0,'11133222,11111222,99999999' 
TABS,ioos:station:wmo:42051:1,1999-07-02T11:30:00Z,29.6350,-93.6417,2.0,296.5173432,5.330787934,-99999.0,'11133222,11111222,99999999' 
TABS,ioos:station:wmo:42051:1,1999-07-02T12:00:00Z,29.6350,-93.6417,2.0,270.0004209,3.72,-99999.0,'11133222,11111222,99999999' 
TABS,ioos:station:wmo:42051:1,1999-07-02T12:30:00Z,29.6350,-93.6417,2.0,286.9678263,7.161745597,-99999.0,'11133222,11111222,99999999' 
TABS,ioos:station:wmo:42051:1,1999-07-02T13:00:00Z,29.6350,-93.6417,2.0,301.2032626,5.752112655,-99999.0,'11133222,11111222,99999999' 
TABS,ioos:station:wmo:42051:1,1999-07-02T13:30:00Z,29.6350,-93.6417,2.0,281.9486526,15.84324462,-99999.0,'11111222,11111222,99999999' 
TABS,ioos:station:wmo:42051:1,1999-07-02T14:00:00Z,29.6350,-93.6417,2.0,130.5898893,21.97830976,-99999.0,'11111222,11111222,99999999' 
TABS,ioos:station:wmo:42051:1,1999-07-02T14:30:00Z,29.6350,-93.6417,2.0,291.7723291,7.225406563,-99999.0,'11133222,11111222,99999999' 
TABS,ioos:station:wmo:42051:1,1999-07-02T15:00:00Z,29.6350,-93.6417,2.0,284.6450928,7.080014124,-99999.0,'11133222,11111222,99999999' 
TABS,ioos:station:wmo:42051:1,1999-07-02T15:30:00Z,29.6350,-93.6417,2.0,304.5487072,8.146686443,-99999.0,'11133222,11111222,99999999' 
TABS,ioos:station:wmo:42051:1,1999-07-02T16:00:00Z,29.6350,-93.6417,2.0,290.3142372,8.583874417,-99999.0,'11133222,11111222,99999999' 
TABS,ioos:station:wmo:42051:1,1999-07-02T16:30:00Z,29.6350,-93.6417,2.0,294.2907723,8.338159269,-99999.0,'11133222,11111222,99999999' 
TABS,ioos:station:wmo:42051:1,1999-07-02T17:00:00Z,29.6350,-93.6417,2.0,286.9564216,9.189477678,-99999.0,'11133222,11111222,99999999' 
TABS,ioos:station:wmo:42051:1,1999-07-02T17:30:00Z,29.6350,-93.6417,2.0,285.3766362,7.882138035,-99999.0,'11133222,11111222,99999999' 
TABS,ioos:station:wmo:42051:1,1999-07-02T18:00:00Z,29.6350,-93.6417,2.0,281.7051118,8.823474372,-99999.0,'11133222,11111222,99999999' 
TABS,ioos:station:wmo:42051:1,1999-07-02T18:30:00Z,29.6350,-93.6417,2.0,228.8478548,1.580411339,-99999.0,'11133222,11111222,99999999' 
TABS,ioos:station:wmo:42051:1,1999-07-02T19:00:00Z,29.6350,-93.6417,2.0,279.1133791,32.89520482,-99999.0,'11111222,11111222,99999999' 
TABS,ioos:station:wmo:42051:1,1999-07-02T19:30:00Z,29.6350,-93.6417,2.0,268.8224369,7.301540933,-99999.0,'11133222,11111222,99999999' 
TABS,ioos:station:wmo:42051:1,1999-07-02T20:00:00Z,29.6350,-93.6417,2.0,241.5464064,4.071854614,-99999.0,'11133222,11111222,99999999' 
TABS,ioos:station:wmo:42051:1,1999-07-02T20:30:00Z,29.6350,-93.6417,2.0,245.997486,4.400511334,-99999.0,'11133222,11111222,99999999' 
TABS,ioos:station:wmo:42051:1,1999-07-02T21:00:00Z,29.6350,-93.6417,2.0,237.176764,5.497708614,-99999.0,'11133222,11111222,99999999' 
TABS,ioos:station:wmo:42051:1,1999-07-02T21:30:00Z,29.6350,-93.6417,2.0,229.1145838,5.912512156,-99999.0,'11133222,11111222,99999999' 
TABS,ioos:station:wmo:42051:1,1999-07-02T22:00:00Z,29.6350,-93.6417,2.0,234.9990391,10.91380777,-99999.0,'11111222,11111222,99999999' 
TABS,ioos:station:wmo:42051:1,1999-07-02T22:30:00Z,29.6350,-93.6417,2.0,259.4527946,15.46120629,-99999.0,'11111222,11111222,99999999' 
TABS,ioos:station:wmo:42051:1,1999-07-02T23:00:00Z,29.6350,-93.6417,2.0,255.9633684,12.28685476,-99999.0,'11111222,11111222,99999999' 
TABS,ioos:station:wmo:42051:1,1999-07-02T23:30:00Z,29.6350,-93.6417,2.0,258.4744926,15.66586736,-99999.0,'11111222,11111222,99999999' 
TABS,ioos:station:wmo:42051:1,1999-07-03T00:00:00Z,29.6350,-93.6417,2.0,259.4628896,10.60888778,-99999.0,'11111222,11111222,99999999' 
TABS,ioos:station:wmo:42051:1,1999-07-03T00:30:00Z,29.6350,-93.6417,2.0,260.6466217,14.64468846,-99999.0,'11111222,11111222,99999999' 
TABS,ioos:station:wmo:42051:1,1999-07-03T01:00:00Z,29.6350,-93.6417,2.0,259.522964,9.844109914,-99999.0,'11133222,11111222,99999999' 
TABS,ioos:station:wmo:42051:1,1999-07-03T01:30:00Z,29.6350,-93.6417,2.0,255.9633684,11.66838892,-99999.0,'11111222,11111222,99999999' 
TABS,ioos:station:wmo:42051:1,1999-07-03T02:00:00Z,29.6350,-93.6417,2.0,255.3274336,9.396408889,-99999.0,'11133222,11111222,99999999' 
TABS,ioos:station:wmo:42051:1,1999-07-03T02:30:00Z,29.6350,-93.6417,2.0,252.542433,10.93358587,-99999.0,'11111222,11111222,99999999' 
TABS,ioos:station:wmo:42051:1,1999-07-03T03:00:00Z,29.6350,-93.6417,2.0,249.9078897,11.26558032,-99999.0,'11111222,11111222,99999999' 
TABS,ioos:station:wmo:42051:1,1999-07-03T03:30:00Z,29.6350,-93.6417,2.0,256.7323067,11.02423694,-99999.0,'11111222,11111222,99999999' 
TABS,ioos:station:wmo:42051:1,1999-07-03T04:00:00Z,29.6350,-93.6417,2.0,246.693975,10.53998577,-99999.0,'11111222,11111222,99999999' 
TABS,ioos:station:wmo:42051:1,1999-07-03T04:30:00Z,29.6350,-93.6417,2.0,246.2277973,12.20554382,-99999.0,'11111222,11111222,99999999' 
TABS,ioos:station:wmo:42051:1,1999-07-03T05:00:00Z,29.6350,-93.6417,2.0,248.8209748,9.909288572,-99999.0,'11133222,11111222,99999999' 
TABS,ioos:station:wmo:42051:1,1999-07-03T05:30:00Z,29.6350,-93.6417,2.0,259.9305399,11.95412063,-99999.0,'11111222,11111222,99999999' 
TABS,ioos:station:wmo:42051:1,1999-07-03T06:00:00Z,29.6350,-93.6417,2.0,258.0165056,12.18553651,-99999.0,'11111222,11111222,99999999' 
TABS,ioos:station:wmo:42051:1,1999-07-03T06:30:00Z,29.6350,-93.6417,2.0,257.4808534,12.36395163,-99999.0,'11111222,11111222,99999999' 
TABS,ioos:station:wmo:42051:1,1999-07-03T07:00:00Z,29.6350,-93.6417,2.0,255.2868128,12.32409429,-99999.0,'11111222,11111222,99999999' 
TABS,ioos:station:wmo:42051:1,1999-07-03T07:30:00Z,29.6350,-93.6417,2.0,268.6735278,12.96347176,-99999.0,'11111222,11111222,99999999' 
TABS,ioos:station:wmo:42051:1,1999-07-03T08:00:00Z,29.6350,-93.6417,2.0,266.5761103,12.39211443,-99999.0,'11111222,11111222,99999999' 
TABS,ioos:station:wmo:42051:1,1999-07-03T08:30:00Z,29.6350,-93.6417,2.0,258.8251235,10.78445641,-99999.0,'11111222,11111222,99999999' 
TABS,ioos:station:wmo:42051:1,1999-07-03T09:00:00Z,29.6350,-93.6417,2.0,267.9638611,12.66799511,-99999.0,'11111222,11111222,99999999' 
TABS,ioos:station:wmo:42051:1,1999-07-03T09:30:00Z,29.6350,-93.6417,2.0,272.1899272,11.77859924,-99999.0,'11111222,11111222,99999999' 
TABS,ioos:station:wmo:42051:1,1999-07-03T10:00:00Z,29.6350,-93.6417,2.0,267.9638611,12.66799511,-99999.0,'11111222,11111222,99999999' 
TABS,ioos:station:wmo:42051:1,1999-07-03T10:30:00Z,29.6350,-93.6417,2.0,254.1680226,10.37349025,-99999.0,'11111222,11111222,99999999' 
TABS,ioos:station:wmo:42051:1,1999-07-03T11:00:00Z,29.6350,-93.6417,2.0,261.7657699,12.49883995,-99999.0,'11111222,11111222,99999999' 
TABS,ioos:station:wmo:42051:1,1999-07-03T11:30:00Z,29.6350,-93.6417,2.0,203.231483,4.53795108,-99999.0,'11133222,11111222,99999999' 
TABS,ioos:station:wmo:42051:1,1999-07-03T12:00:00Z,29.6350,-93.6417,2.0,243.43459,13.99778554,-99999.0,'11111222,11111222,99999999' 
TABS,ioos:station:wmo:42051:1,1999-07-03T12:30:00Z,29.6350,-93.6417,2.0,227.5188971,9.491475122,-99999.0,'11133222,11111222,99999999' 
TABS,ioos:station:wmo:42051:1,1999-07-03T13:00:00Z,29.6350,-93.6417,2.0,199.4858735,7.584418237,-99999.0,'11133222,11111222,99999999' 
TABS,ioos:station:wmo:42051:1,1999-07-03T13:30:00Z,29.6350,-93.6417,2.0,209.8678554,8.072199205,-99999.0,'11133222,11111222,99999999' 
TABS,ioos:station:wmo:42051:1,1999-07-03T14:00:00Z,29.6350,-93.6417,2.0,236.9827578,17.232951,-99999.0,'11111222,11111222,99999999' 
TABS,ioos:station:wmo:42051:1,1999-07-03T14:30:00Z,29.6350,-93.6417,2.0,235.8606914,10.62006121,-99999.0,'11111222,11111222,99999999' 
TABS,ioos:station:wmo:42051:1,1999-07-03T15:00:00Z,29.6350,-93.6417,2.0,242.2327598,9.594842365,-99999.0,'11133222,11111222,99999999' 
TABS,ioos:station:wmo:42051:1,1999-07-03T15:30:00Z,29.6350,-93.6417,2.0,241.0568979,12.93560977,-99999.0,'11111222,11111222,99999999' 
TABS,ioos:station:wmo:42051:1,1999-07-03T16:00:00Z,29.6350,-93.6417,2.0,243.1233245,11.52486442,-99999.0,'11111222,11111222,99999999' 
TABS,ioos:station:wmo:42051:1,1999-07-03T16:30:00Z,29.6350,-93.6417,2.0,258.4165015,11.10618296,-99999.0,'11111222,11111222,99999999' 
TABS,ioos:station:wmo:42051:1,1999-07-03T17:00:00Z,29.6350,-93.6417,2.0,269.4978787,17.13065673,-99999.0,'11111222,11111222,99999999' 
TABS,ioos:station:wmo:42051:1,1999-07-03T17:30:00Z,29.6350,-93.6417,2.0,267.8234641,15.80139551,-99999.0,'11111222,11111222,99999999' 
TABS,ioos:station:wmo:42051:1,1999-07-03T18:00:00Z,29.6350,-93.6417,2.0,271.8025211,19.07943657,-99999.0,'11111222,11111222,99999999' 
TABS,ioos:station:wmo:42051:1,1999-07-03T18:30:00Z,29.6350,-93.6417,2.0,269.5307217,18.33061374,-99999.0,'11111222,11111222,99999999' 
TABS,ioos:station:wmo:42051:1,1999-07-03T19:00:00Z,29.6350,-93.6417,2.0,264.6089227,15.86014502,-99999.0,'11111222,11111222,99999999' 
TABS,ioos:station:wmo:42051:1,1999-07-03T19:30:00Z,29.6350,-93.6417,2.0,266.8335621,16.11459587,-99999.0,'11111222,11111222,99999999' 
TABS,ioos:station:wmo:42051:1,1999-07-03T20:00:00Z,29.6350,-93.6417,2.0,267.414466,16.4066968,-99999.0,'11111222,11111222,99999999' 
TABS,ioos:station:wmo:42051:1,1999-07-03T20:30:00Z,29.6350,-93.6417,2.0,269.4341799,15.20074011,-99999.0,'11111222,11111222,99999999' 
TABS,ioos:station:wmo:42051:1,1999-07-03T21:00:00Z,29.6350,-93.6417,2.0,271.0685814,16.09279653,-99999.0,'11111222,11111222,99999999' 
TABS,ioos:station:wmo:42051:1,1999-07-03T21:30:00Z,29.6350,-93.6417,2.0,272.0229699,17.00059117,-99999.0,'11111222,11111222,99999999' 
TABS,ioos:station:wmo:42051:1,1999-07-03T22:00:00Z,29.6350,-93.6417,2.0,270.0004209,15.5,-99999.0,'11111222,11111222,99999999' 
TABS,ioos:station:wmo:42051:1,1999-07-03T22:30:00Z,29.6350,-93.6417,2.0,275.442469,15.71081475,-99999.0,'11111222,11111222,99999999' 
TABS,ioos:station:wmo:42051:1,1999-07-03T23:00:00Z,29.6350,-93.6417,2.0,270.6014022,14.30078669,-99999.0,'11111222,11111222,99999999' 
TABS,ioos:station:wmo:42051:1,1999-07-03T23:30:00Z,29.6350,-93.6417,2.0,258.9390278,13.9694846,-99999.0,'11111222,11111222,99999999' 
TABS,ioos:station:wmo:42051:1,1999-07-04T00:00:00Z,29.6350,-93.6417,2.0,252.5867733,10.45931642,-99999.0,'11111222,11111222,99999999' 
TABS,ioos:station:wmo:42051:1,1999-07-04T00:30:00Z,29.6350,-93.6417,2.0,234.5880626,9.509079871,-99999.0,'11133222,11111222,99999999' 
TABS,ioos:station:wmo:42051:1,1999-07-04T01:00:00Z,29.6350,-93.6417,2.0,184.4324476,3.881610491,-99999.0,'11133222,11111222,99999999' 
TABS,ioos:station:wmo:42051:1,1999-07-04T01:30:00Z,29.6350,-93.6417,2.0,216.427741,7.780231359,-99999.0,'11133222,11111222,99999999' 
TABS,ioos:station:wmo:42051:1,1999-07-04T02:00:00Z,29.6350,-93.6417,2.0,229.6128201,7.824736417,-99999.0,'11133222,11111222,99999999' 
TABS,ioos:station:wmo:42051:1,1999-07-04T02:30:00Z,29.6350,-93.6417,2.0,232.498143,16.14698114,-99999.0,'11111222,11111222,99999999' 
TABS,ioos:station:wmo:42051:1,1999-07-04T03:00:00Z,29.6350,-93.6417,2.0,226.4785893,16.43863741,-99999.0,'11111222,11111222,99999999' 
TABS,ioos:station:wmo:42051:1,1999-07-04T03:30:00Z,29.6350,-93.6417,2.0,218.9762082,16.10488435,-99999.0,'11111222,11111222,99999999' 
TABS,ioos:station:wmo:42051:1,1999-07-04T04:00:00Z,29.6350,-93.6417,2.0,210.0922384,16.35428079,-99999.0,'11111222,11111222,99999999' 
TABS,ioos:station:wmo:42051:1,1999-07-04T04:30:00Z,29.6350,-93.6417,2.0,221.8915029,11.60655418,-99999.0,'11111222,11111222,99999999' 
TABS,ioos:station:wmo:42051:1,1999-07-04T05:00:00Z,29.6350,-93.6417,2.0,237.5956323,11.12176695,-99999.0,'11111222,11111222,99999999' 
TABS,ioos:station:wmo:42051:1,1999-07-04T05:30:00Z,29.6350,-93.6417,2.0,240.3504727,11.1383347,-99999.0,'11111222,11111222,99999999' 
TABS,ioos:station:wmo:42051:1,1999-07-04T06:00:00Z,29.6350,-93.6417,2.0,249.6058615,12.39704804,-99999.0,'11111222,11111222,99999999' 
TABS,ioos:station:wmo:42051:1,1999-07-04T06:30:00Z,29.6350,-93.6417,2.0,270.0004209,11.77,-99999.0,'11111222,11111222,99999999' 
TABS,ioos:station:wmo:42051:1,1999-07-04T07:00:00Z,29.6350,-93.6417,2.0,261.4861289,13.10439621,-99999.0,'11111222,11111222,99999999' 
TABS,ioos:station:wmo:42051:1,1999-07-04T07:30:00Z,29.6350,-93.6417,2.0,267.5969752,14.31258188,-99999.0,'11111222,11111222,99999999' 
TABS,ioos:station:wmo:42051:1,1999-07-04T08:00:00Z,29.6350,-93.6417,2.0,263.4120377,15.60301573,-99999.0,'11111222,11111222,99999999' 
TABS,ioos:station:wmo:42051:1,1999-07-04T08:30:00Z,29.6350,-93.6417,2.0,263.7438259,31.47743636,-99999.0,'11111222,11111222,99999999' 
TABS,ioos:station:wmo:42051:1,1999-07-04T09:00:00Z,29.6350,-93.6417,2.0,270.7462,34.57292872,-99999.0,'11111222,11111222,99999999' 
TABS,ioos:station:wmo:42051:1,1999-07-04T09:30:00Z,29.6350,-93.6417,2.0,270.0004209,34.72,-99999.0,'11111222,11111222,99999999' 
TABS,ioos:station:wmo:42051:1,1999-07-04T10:00:00Z,29.6350,-93.6417,2.0,267.0096144,34.31671604,-99999.0,'11111222,11111222,99999999' 
TABS,ioos:station:wmo:42051:1,1999-07-04T10:30:00Z,29.6350,-93.6417,2.0,264.0530885,33.10815307,-99999.0,'11111222,11111222,99999999' 
TABS,ioos:station:wmo:42051:1,1999-07-04T11:00:00Z,29.6350,-93.6417,2.0,257.8766325,32.6173972,-99999.0,'11111222,11111222,99999999' 
TABS,ioos:station:wmo:42051:1,1999-07-04T11:30:00Z,29.6350,-93.6417,2.0,247.2547829,25.03698265,-99999.0,'11111222,11111222,99999999' 
TABS,ioos:station:wmo:42051:1,1999-07-04T12:00:00Z,29.6350,-93.6417,2.0,239.0539893,21.72201188,-99999.0,'11111222,11111222,99999999' 
TABS,ioos:station:wmo:42051:1,1999-07-04T12:30:00Z,29.6350,-93.6417,2.0,239.5945268,28.84743316,-99999.0,'11111222,11111222,99999999' 
TABS,ioos:station:wmo:42051:1,1999-07-04T13:00:00Z,29.6350,-93.6417,2.0,236.6366039,28.18477603,-99999.0,'11111222,11111222,99999999' 
TABS,ioos:station:wmo:42051:1,1999-07-04T13:30:00Z,29.6350,-93.6417,2.0,238.0771457,29.31321204,-99999.0,'11111222,11111222,99999999' 
TABS,ioos:station:wmo:42051:1,1999-07-04T14:00:00Z,29.6350,-93.6417,2.0,242.4692068,31.58670765,-99999.0,'11111222,11111222,99999999' 
TABS,ioos:station:wmo:42051:1,1999-07-04T14:30:00Z,29.6350,-93.6417,2.0,241.9236092,37.99058831,-99999.0,'11111222,11111222,99999999' 
TABS,ioos:station:wmo:42051:1,1999-07-04T15:00:00Z,29.6350,-93.6417,2.0,248.5705813,30.57352613,-99999.0,'11111222,11111222,99999999' 
TABS,ioos:station:wmo:42051:1,1999-07-04T15:30:00Z,29.6350,-93.6417,2.0,257.003722,33.79563433,-99999.0,'11111222,11111222,99999999' 
TABS,ioos:station:wmo:42051:1,1999-07-04T16:00:00Z,29.6350,-93.6417,2.0,261.0718192,34.53844235,-99999.0,'11111222,11111222,99999999' 